This is the latest recevied weather packets stored in our database for station/object AD8BV. If no packets are shown the sender has not sent any weather packets the latest 10 day(s).
| Time | Temp. | Humidity | Pressure | Rain* | Wind** | Luminosity | Snow |
|---|---|---|---|---|---|---|---|
| 1777512961 | 7.22° C | 96% | 1014.6 hPa | 1.27 mm | - | 0 W/m² | - |
| 1777512657 | 7.22° C | 96% | 1014.5 hPa | 1.78 mm | - | 0 W/m² | - |
| 1777512354 | 7.22° C | 96% | 1014.3 hPa | 1.78 mm | - | 0 W/m² | - |
| 1777512051 | 7.22° C | 96% | 1014.2 hPa | 1.27 mm | - | 0 W/m² | - |
| 1777511750 | 7.22° C | 96% | 1014.1 hPa | 1.27 mm | - | 0 W/m² | - |
| 1777511446 | 7.22° C | 96% | 1014.2 hPa | 0 mm | - | 0 W/m² | - |
| 1777511143 | 7.78° C | 96% | 1014 hPa | 1.78 mm | - | 0 W/m² | - |
| 1777510838 | 7.78° C | 96% | 1014.1 hPa | 1.78 mm | - | 0 W/m² | - |
| 1777510536 | 7.78° C | 96% | 1013.9 hPa | 1.27 mm | - | 0 W/m² | - |
| 1777510232 | 7.78° C | 96% | 1013.8 hPa | 1.27 mm | - | 0 W/m² | - |
| 1777509928 | 7.78° C | 96% | 1013.6 hPa | 1.78 mm | - | 0 W/m² | - |
| 1777509624 | 7.78° C | 96% | 1013.6 hPa | 1.78 mm | - | 0 W/m² | - |
| 1777509321 | 7.78° C | 96% | 1013.5 hPa | 0 mm | - | 0 W/m² | - |
| 1777509018 | 7.78° C | 96% | 1013.6 hPa | 1.78 mm | - | 0 W/m² | - |
| 1777508715 | 7.78° C | 96% | 1013.7 hPa | 1.78 mm | - | 0 W/m² | - |
| 1777508413 | 7.78° C | 96% | 1013.5 hPa | 1.27 mm | - | 0 W/m² | - |
| 1777508109 | 7.78° C | 96% | 1013.4 hPa | 3.05 mm | - | 0 W/m² | - |
| 1777507806 | 7.78° C | 96% | 1013.5 hPa | 3.05 mm | - | 0 W/m² | - |
| 1777507503 | 8.33° C | 96% | 1013.5 hPa | 1.27 mm | - | 0 W/m² | - |
| 1777507199 | 8.33° C | 96% | 1013.2 hPa | 1.78 mm | - | 3 W/m² | - |
| 1777506898 | 8.33° C | 96% | 1013.1 hPa | 1.78 mm | - | 3 W/m² | - |
| 1777506594 | 8.33° C | 96% | 1013.3 hPa | 1.27 mm | - | 2 W/m² | - |
| 1777506290 | 8.33° C | 96% | 1013.2 hPa | 1.27 mm | - | 2 W/m² | - |
| 1777505986 | 8.33° C | 96% | 1013.1 hPa | 0 mm | - | 7 W/m² | - |
| 1777505682 | 8.33° C | 96% | 1013 hPa | 0 mm | - | 8 W/m² | - |
* Rain latest hour (hover to see other rain measurements)
** Current wind speed in m/s (hover to see current wind gust speed)